This demonstration page uses our WeatherBlox Daily Observations layout. Learn more.

41.55636, -103.73856

Hourly Observations for December 17, 2015

Temp ( °F °C ) Dew Point ( °F °C ) Humidity (%) Winds ( mph kmh ) Pressure ( in mb ) Visibility ( mi km ) Precip ( " mm )
12:53 am 00:53 Mostly Clear 7 -13.9 3 -16.1 84 84 NNE 6 9 30.03 1017 10 16.0934 0 0
1:53 am 01:53 Cloudy 7 -13.9 3 -16.1 84 84 WNW 6 9 30.04 1017 10 16.0934 0 0
2:53 am 02:53 Partly Cloudy 4 -15.6 1 -17.2 88 88 NW 6 9 30.08 1019 10 16.0934 0 0
3:18 am 03:18 Mostly Cloudy 3 -16 0 -18 85 85 NW 9 15 30.33 1027 10 16.0934 0 0
3:53 am 03:53 Cloudy 6 -14.4 3 -16.1 87 87 W 7 11 30.11 1020 10 16.0934 0 0
4:14 am 04:14 Cloudy with Light Snow 9 -13 3 -16 78 78 W 5 7 30.27 1025 1.75 2.816345 0 0
4:50 am 04:50 Cloudy with Light Snow 10 -12 7 -14 85 85 NW 3 6 30.27 1025 2 3.21868 0 0
4:53 am 04:53 Cloudy with Light Snow 10 -12.2 6 -14.4 84 84 NNW 5 7 30.13 1020 2 3.21868 0.01 0.254
5:04 am 05:04 Cloudy with Light Snow 10 -12 7 -14 85 85 NNW 6 9 30.27 1025 1.5 2.41401 0 0
5:27 am 05:27 Mostly Cloudy with Scattered Snow Showers 11 -11.7 8 -13.3 88 88 WNW 6 9 30.3 1026 1 1.60934 0.01 0.254
5:46 am 05:46 Mostly Cloudy with Scattered Snow Showers 12 -11.1 9 -12.8 87 87 NW 6 9 30.3 1026 0.75 1.207005 0.02 0.508
5:53 am 05:53 Mostly Cloudy with Scattered Snow Showers 12 -11.1 9 -12.8 87 87 NW 6 9 30.16 1022 1 1.60934 0.02 0.508
6:14 am 06:14 Mostly Cloudy with Scattered Snow Showers 12 -11 10 -12 92 92 WNW 7 11 30.33 1027 0.75 1.207005 0 0
6:22 am 06:22 Cloudy with Light Snow 14 -10 10 -12 85 85 WNW 8 13 30.3 1026 1.25 2.011675 0 0
6:44 am 06:44 Cloudy with Light Snow 16 -9 10 -12 79 79 WNW 10 17 30.3 1026 1.25 2.011675 0 0
6:53 am 06:53 Cloudy with Light Snow 15 -9.4 12 -11.1 88 88 WNW 9 15 30.19 1022 1.25 2.011675 0.03 0.762
7:28 am 07:28 Cloudy with Light Snow 16 -9 10 -12 79 79 WNW 10 17 30.33 1027 3 4.82802 0 0
7:53 am 07:53 Cloudy 15 -9.4 11 -11.7 84 84 WNW 12 19 30.22 1023 10 16.0934 0 0.0254
8:53 am 08:53 Cloudy 17 -8.3 10 -12.2 74 74 WNW 9 15 30.25 1024 10 16.0934 0 0
9:53 am 09:53 Cloudy 18 -7.8 10 -12.2 71 71 WNW 14 22 30.29 1026 10 16.0934 0 0
10:53 am 10:53 Sunny 19 -7.2 9 -12.8 65 65 WNW 16 26 30.28 1026 10 16.0934 0 0
11:53 am 11:53 Sunny 19 -7.2 9 -12.8 65 65 WNW 15 24 30.27 1025 10 16.0934 0 0
12:53 pm 12:53 Sunny 20 -6.7 10 -12.2 65 65 W 12 19 30.24 1024 10 16.0934 0 0
1:53 pm 13:53 Sunny 20 -6.7 10 -12.2 65 65 W 10 17 30.23 1024 10 16.0934 0 0
2:53 pm 14:53 Sunny 20 -6.7 9 -12.8 62 62 W 7 11 30.23 1024 10 16.0934 0 0
3:53 pm 15:53 Sunny 18 -7.8 6 -14.4 59 59 W 5 7 30.22 1024 10 16.0934 0 0
4:53 pm 16:53 Clear 10 -12.2 3 -16.1 73 73 Calm 30.24 1024 10 16.0934 0 0
5:53 pm 17:53 Clear 1 -17.2 -4 -20 79 79 NNE 6 9 30.24 1024 7 11.26538 0 0
6:53 pm 18:53 Clear 2 -16.7 -2 -18.9 83 83 N 7 11 30.23 1024 9 14.48406 0 0
7:53 pm 19:53 Clear -3 -19.4 -6 -21.1 86 86 Calm 30.25 1024 10 16.0934 0 0
8:53 pm 20:53 Clear -5 -20.6 -9 -22.8 83 83 NE 5 7 30.24 1024 10 16.0934 0 0
9:53 pm 21:53 Clear -5 -20.6 -9 -22.8 83 83 Calm 30.22 1024 10 16.0934 0 0
10:53 pm 22:53 Clear -7 -21.7 -11 -23.9 82 82 NNW 5 7 30.22 1023 10 16.0934 0 0
11:53 pm 23:53 Clear -4 -20 -9 -22.8 79 79 N 3 6 30.19 1023 10 16.0934 0 0

Powered by AerisWeather